This is the latest recevied weather packets stored in our database for station/object WA9SDJ-13. If no packets are shown the sender has not sent any weather packets the latest 10 day(s).
| Time | Temp. | Humidity | Pressure | Rain* | Wind** | Luminosity | Snow |
|---|---|---|---|---|---|---|---|
| 1778330014 | 12.22° C | 88% | 1007.9 hPa | 0 mm | - | 118 W/m² | - |
| 1778329954 | 12.22° C | 87% | 1007.9 hPa | 0 mm | - | 79 W/m² | - |
| 1778329893 | 12.22° C | 87% | 1007.8 hPa | 0 mm | - | 114 W/m² | - |
| 1778329833 | 12.22° C | 87% | 1007.8 hPa | 0 mm | - | 88 W/m² | - |
| 1778329773 | 12.22° C | 87% | 1007.8 hPa | 0 mm | - | 88 W/m² | - |
| 1778329713 | 12.22° C | 87% | 1007.8 hPa | 0 mm | - | 107 W/m² | - |
| 1778329653 | 12.22° C | 87% | 1007.8 hPa | 0 mm | - | 81 W/m² | - |
| 1778329593 | 12.22° C | 88% | 1007.9 hPa | 0 mm | - | 77 W/m² | - |
| 1778329534 | 12.22° C | 87% | 1007.8 hPa | 0 mm | - | 65 W/m² | - |
| 1778329474 | 12.22° C | 88% | 1007.7 hPa | 0 mm | - | 63 W/m² | - |
| 1778329414 | 12.22° C | 87% | 1007.7 hPa | 0 mm | - | 93 W/m² | - |
| 1778329354 | 12.22° C | 88% | 1007.8 hPa | 0 mm | - | 69 W/m² | - |
| 1778329293 | 12.22° C | 88% | 1007.8 hPa | 0 mm | - | 97 W/m² | - |
| 1778329233 | 12.22° C | 88% | 1007.8 hPa | 0 mm | - | 84 W/m² | - |
| 1778329173 | 12.22° C | 88% | 1007.8 hPa | 0 mm | - | 92 W/m² | - |
| 1778329113 | 12.22° C | 88% | 1007.8 hPa | 0 mm | - | 65 W/m² | - |
| 1778329054 | 12.22° C | 88% | 1007.8 hPa | 0 mm | - | 77 W/m² | - |
| 1778328994 | 12.22° C | 88% | 1007.7 hPa | 0 mm | - | 79 W/m² | - |
| 1778328934 | 12.22° C | 88% | 1007.7 hPa | 0 mm | - | 88 W/m² | - |
| 1778328873 | 12.22° C | 88% | 1007.7 hPa | 0 mm | - | 77 W/m² | - |
| 1778328813 | 12.22° C | 88% | 1007.7 hPa | 0 mm | - | 70 W/m² | - |
| 1778328753 | 12.22° C | 88% | 1007.7 hPa | 0 mm | - | 81 W/m² | - |
| 1778328693 | 12.22° C | 88% | 1007.7 hPa | 0 mm | - | 81 W/m² | - |
| 1778328633 | 12.22° C | 87% | 1007.5 hPa | 0 mm | - | 62 W/m² | - |
| 1778328573 | 12.22° C | 87% | 1007.7 hPa | 0 mm | - | 92 W/m² | - |
* Rain latest hour (hover to see other rain measurements)
** Current wind speed in m/s (hover to see current wind gust speed)